Location: Paderno d�Adda
(45.6667°N, 9.4333°E)
Time: 01:27:36
(UTC+00:00)

Cosmos 2263 Rocket - Pass Details

Date: 19 September 2020
Orbit: 822 x 850 km, 71.0° (Epoch: 26 October)

Event Time Altitude Azimuth Distance (km) Brightness Sun altitude
Rises 19:14:44 0° 239° (WSW) 3,350 5.8 -19.5°
Reaches altitude 10° 19:17:29 10° 250° (WSW) 2,423 5.2 -19.9°
Maximum altitude 19:22:14 29° 309° (NW) 1,496 4.2 -20.7°
Drops below altitude 10° 19:27:03 10° 9° (N) 2,447 4.8 -21.4°
Sets 19:29:51 0° 20° (NNE) 3,389 5.4 -21.9°
